Погода в Лобойкове

Россия / Волгоградская область     50°27′33″N   44°12′40″E
темп.,
°C
ветер,
м/с
пор.,
м/с
влажн.,
%
обл.,
%
осадки,
мм/ч
давл.,
гПа
погр.,
м
11 мая, вт
вт1100:00+7вюв4796100 2.0 1013428
03:00+6юв6118867 2.4 1015575
06:00+7вюв5108082 0.0 1017780
09:00+9юв7107399 0.1 10201177
12:00+11юв8116875 0.1 10211500
15:00+12юв8106461 0.3 10231419
18:00+12в476413 0.1 1023417
21:00+8всв477576 0.1 1024117
12 мая, ср
ср1200:00+7св337455 0.0 102331
03:00+6св4981100 0.0 1023144
06:00+8св488189 0.0 1022213
09:00+14всв4566100 0.0 1020659
12:00+16всв335865 0.0 1020991
15:00+18в33500 0.0 10201397
18:00+17в46694 0.0 1020342
21:00+12в338948 0.0 102037
13 мая, чт
чт1300:00+11св35915 0.0 101977
03:00+12св3991100 0.0 1017223
06:00+13всв3893100 0.7 1016282
09:00+19юв576648 0.7 1016686
12:00+22юв565625 0.0 10161362
15:00+24ююв45514 0.1 10161780
18:00+22юв35624 0.0 1016148
21:00+18юв336938 0.0 101724
14 мая, пт
пт1400:00+16в227499 0.0 101815
03:00+16всв3382100 0.0 101826
06:00+17в388362 0.0 1018201
09:00+22юв695728 0.0 1017588
12:00+26ююв6943100 0.0 10171138
15:00+27юв79435 0.0 10171496
18:00+25юв511510 0.0 1016295
21:00+20юв616515 0.0 1016319
15 мая, сб
сб1500:00+19ююв617425 0.0 1016404
03:00+16юв516454 0.0 1017296
06:00+17юв516512 0.0 1017312
09:00+22ююв713425 0.0 1016517
12:00+26ююв71232100 0.0 10161085
15:00+28ююв712345 0.0 10152129
18:00+25юв5114677 0.0 1014259
21:00+19юв5145158 0.0 1014210